QPF
0.07 0.07 0.06 0.06 0.07 0.07 0.09 0.12 0.12 0.12 0.09 0.08 0.08 0.07 0.08 0.06 0.05 0.06 0.06 0.05 0.04 0.03 0.04 0.05 0.05 0.08 0.09 0.10 0.13 0.09 0.07 0.15 0.17 0.15 0.11 0.07 0.06 0.05 0.06 0.06 0.05 0.05 0.05
0.07 0.09 0.09 0.07 0.08 0.09 0.08 0.09 0.10 0.11 0.11 0.10 0.09 0.09 0.09 0.10 0.09 0.08 0.07 0.06 0.05 0.04 0.03 0.04 0.06 0.09 0.09 0.11 0.13 0.10 0.07 0.08 0.10 0.10 0.08 0.07 0.08 0.06 0.05 0.05 0.05 0.04 0.04
0.10 0.08 0.08 0.07 0.08 0.09 0.09 0.08 0.08 0.09 0.14 0.16 0.16 0.14 0.13 0.12 0.09 0.09 0.09 0.07 0.04 0.03 0.02 0.03 0.04 0.05 0.07 0.09 0.10 0.08 0.08 0.07 0.07 0.06 0.06 0.06 0.06 0.05 0.04 0.04 0.04 0.05 0.05
0.04 0.06 0.07 0.06 0.07 0.08 0.09 0.10 0.09 0.07 0.12 0.17 0.17 0.15 0.14 0.13 0.10 0.08 0.06 0.05 0.04 0.04 0.03 0.03 0.03 0.03 0.05 0.05 0.05 0.06 0.08 0.08 0.06 0.04 0.04 0.05 0.05 0.04 0.04 0.05 0.05 0.05 0.05
0.04 0.05 0.06 0.06 0.05 0.05 0.07 0.08 0.12 0.11 0.11 0.12 0.14 0.16 0.15 0.13 0.11 0.08 0.05 0.04 0.04 0.04 0.05 0.04 0.03 0.03 0.03 0.04 0.05 0.07 0.08 0.07 0.06 0.05 0.04 0.04 0.03 0.04 0.03 0.03 0.03 0.03 0.03
0.03 0.05 0.05 0.05 0.04 0.05 0.06 0.07 0.11 0.13 0.12 0.10 0.09 0.10 0.09 0.08 0.10 0.10 0.06 0.05 0.04 0.04 0.04 0.05 0.06 0.05 0.03 0.03 0.03 0.04 0.06 0.07 0.07 0.07 0.07 0.05 0.04 0.03 0.02 0.02 0.03 0.03 0.03
0.03 0.04 0.04 0.04 0.04 0.04 0.05 0.06 0.08 0.10 0.12 0.11 0.13 0.11 0.08 0.06 0.06 0.08 0.07 0.06 0.05 0.05 0.04 0.04 0.04 0.04 0.03 0.02 0.02 0.03 0.04 0.06 0.08 0.11 0.12 0.10 0.09 0.06 0.03 0.02 0.02 0.02 0.02
0.02 0.02 0.03 0.03 0.03 0.04 0.04 0.06 0.06 0.08 0.12 0.12 0.13 0.11 0.09 0.08 0.06 0.05 0.05 0.05 0.04 0.04 0.03 0.03 0.03 0.04 0.04 0.04 0.03 0.02 0.02 0.03 0.05 0.07 0.08 0.08 0.09 0.09 0.09 0.07 0.04 0.03 0.02
0.02 0.02 0.01 0.02 0.03 0.03 0.05 0.05 0.05 0.12 0.18 0.15 0.12 0.10 0.10 0.09 0.08 0.07 0.06 0.05 0.04 0.03 0.03 0.03 0.02 0.03 0.04 0.04 0.04 0.04 0.02 0.02 0.03 0.04 0.06 0.07 0.07 0.07 0.08 0.11 0.09 0.05 0.02
0.01 0.01 0.02 0.02 0.03 0.04 0.05 0.04 0.05 0.10 0.15 0.16 0.15 0.11 0.07 0.07 0.08 0.07 0.06 0.06 0.05 0.03 0.02 0.01 0.01 0.02 0.03 0.02 0.03 0.02 0.01 0.01 0.02 0.03 0.06 0.08 0.09 0.08 0.07 0.09 0.12 0.12 0.08
0.02 0.02 0.02 0.03 0.04 0.05 0.06 0.06 0.07 0.08 0.12 0.15 0.15 0.13 0.10 0.07 0.06 0.07 0.07 0.07 0.06 0.03 0.02 0.02 0.02 0.03 0.03 0.02 0.03 0.02 0.01 0.01 0.01 0.02 0.04 0.04 0.06 0.06 0.06 0.07 0.09 0.08 0.08
0.04 0.03 0.03 0.03 0.03 0.04 0.05 0.06 0.08 0.09 0.13 0.15 0.14 0.12 0.10 0.08 0.07 0.06 0.06 0.09 0.07 0.04 0.03 0.03 0.03 0.03 0.03 0.03 0.02 0.02 0.01 0.01 0.01 0.02 0.03 0.03 0.03 0.04 0.05 0.07 0.09 0.10 0.09
0.04 0.04 0.03 0.03 0.04 0.04 0.05 0.06 0.07 0.09 0.12 0.13 0.13 0.12 0.09 0.07 0.08 0.08 0.07 0.07 0.06 0.04 0.03 0.02 0.03 0.05 0.06 0.05 0.05 0.04 0.03 0.02 0.02 0.02 0.03 0.03 0.03 0.04 0.04 0.06 0.07 0.08 0.10
0.04 0.03 0.04 0.04 0.05 0.05 0.04 0.04 0.04 0.05 0.07 0.08 0.10 0.10 0.07 0.06 0.07 0.08 0.08 0.08 0.07 0.05 0.04 0.04 0.03 0.05 0.07 0.07 0.07 0.08 0.06 0.05 0.04 0.03 0.03 0.04 0.05 0.05 0.05 0.05 0.04 0.05 0.08
0.04 0.04 0.05 0.04 0.04 0.04 0.03 0.03 0.03 0.04 0.04 0.06 0.08 0.08 0.05 0.03 0.05 0.06 0.07 0.08 0.07 0.06 0.05 0.05 0.06 0.07 0.08 0.05 0.05 0.06 0.06 0.06 0.04 0.04 0.04 0.05 0.06 0.06 0.06 0.05 0.04 0.04 0.05
0.05 0.05 0.05 0.04 0.03 0.04 0.04 0.03 0.03 0.03 0.04 0.06 0.06 0.05 0.03 0.02 0.03 0.05 0.06 0.08 0.07 0.06 0.05 0.05 0.08 0.07 0.07 0.03 0.01 0.02 0.02 0.02 0.02 0.03 0.03 0.04 0.06 0.07 0.09 0.09 0.07 0.05 0.05
0.04 0.04 0.05 0.04 0.04 0.04 0.03 0.02 0.02 0.03 0.04 0.05 0.04 0.04 0.03 0.03 0.04 0.05 0.07 0.08 0.08 0.06 0.06 0.06 0.06 0.05 0.05 0.02 0.01 0.01 0.02 0.01 0.01 0.01 0.01 0.02 0.03 0.03 0.05 0.06 0.08 0.10 0.10
0.05 0.05 0.04 0.04 0.04 0.03 0.03 0.02 0.02 0.02 0.03 0.03 0.03 0.03 0.03 0.03 0.05 0.06 0.08 0.07 0.06 0.06 0.05 0.06 0.05 0.06 0.05 0.02 0.02 0.03 0.02 0.01 0.02 0.01 0.01 0.01 0.01 0.01 0.02 0.03 0.04 0.06 0.08
0.05 0.04 0.04 0.03 0.03 0.03 0.02 0.02 0.02 0.02 0.02 0.02 0.03 0.03 0.02 0.03 0.04 0.05 0.06 0.05 0.05 0.05 0.05 0.04 0.03 0.04 0.03 0.02 0.03 0.03 0.03 0.03 0.02 0.01 0.01 0.01 0.01 0.01 0.01 0.02 0.02 0.03 0.05
0.03 0.03 0.04 0.03 0.03 0.02 0.01 0.01 0.01 0.01 0.02 0.02 0.02 0.02 0.02 0.02 0.02 0.04 0.05 0.05 0.04 0.04 0.04 0.03 0.02 0.02 0.02 0.02 0.02 0.03 0.03 0.03 0.02 0.01 0.00 0.00 0.01 0.01 0.01 0.01 0.02 0.02 0.03
0.03 0.03 0.03 0.03 0.02 0.02 0.01 0.02 0.02 0.02 0.02 0.02 0.02 0.02 0.01 0.01 0.02 0.02 0.02 0.03 0.04 0.03 0.03 0.03 0.02 0.02 0.03 0.02 0.02 0.03 0.02 0.02 0.02 0.01 0.01 0.01 0.01 0.01 0.01 0.01 0.02 0.03 0.03
0.03 0.02 0.03 0.04 0.03 0.02 0.02 0.02 0.03 0.03 0.03 0.02 0.02 0.02 0.01 0.01 0.01 0.01 0.01 0.02 0.02 0.02 0.03 0.03 0.02 0.03 0.03 0.04 0.04 0.03 0.02 0.02 0.02 0.01 0.01 0.02 0.02 0.02 0.02 0.02 0.03 0.04 0.04
0.02 0.02 0.03 0.04 0.04 0.03 0.03 0.02 0.03 0.04 0.04 0.03 0.03 0.02 0.02 0.01 0.02 0.01 0.01 0.01 0.01 0.01 0.02 0.02 0.02 0.02 0.03 0.03 0.04 0.03 0.03 0.03 0.02 0.02 0.02 0.02 0.02 0.02 0.02 0.01 0.02 0.03 0.05
0.03 0.03 0.04 0.04 0.04 0.04 0.04 0.03 0.03 0.03 0.03 0.03 0.03 0.03 0.03 0.02 0.03 0.03 0.02 0.02 0.01 0.01 0.01 0.01 0.02 0.02 0.03 0.04 0.04 0.04 0.04 0.04 0.03 0.03 0.03 0.03 0.02 0.02 0.01 0.02 0.01 0.02 0.03
0.04 0.03 0.03 0.04 0.03 0.04 0.05 0.04 0.03 0.03 0.03 0.03 0.03 0.03 0.03 0.02 0.03 0.03 0.04 0.03 0.02 0.02 0.01 0.01 0.01 0.01 0.01 0.01 0.02 0.03 0.03 0.03 0.03 0.03 0.03 0.02 0.02 0.02 0.02 0.02 0.02 0.02 0.02
0.03 0.04 0.04 0.04 0.03 0.03 0.03 0.03 0.03 0.03 0.03 0.02 0.02 0.02 0.02 0.03 0.03 0.02 0.03 0.03 0.02 0.02 0.03 0.02 0.01 0.01 0.01 0.02 0.01 0.02 0.03 0.03 0.05 0.04 0.03 0.03 0.03 0.02 0.02 0.02 0.02 0.03 0.03
MSLP
1017.54 1017.46 1017.35 1017.24 1017.15 1017.07 1017.02 1016.96 1016.87 1016.72 1016.48 1016.16 1015.76 1015.31 1014.87 1014.48 1014.18 1014.00 1013.94 1013.98 1014.08 1014.21 1014.31 1014.37 1014.38 1014.34 1014.27 1014.22 1014.21 1014.25 1014.34 1014.49 1014.66 1014.83 1014.95 1015.02 1015.01 1014.94 1014.82 1014.67 1014.52 1014.39 1014.32
1017.68 1017.57 1017.44 1017.30 1017.17 1017.06 1016.97 1016.88 1016.77 1016.60 1016.37 1016.05 1015.66 1015.24 1014.80 1014.41 1014.09 1013.87 1013.77 1013.75 1013.81 1013.89 1013.98 1014.04 1014.07 1014.06 1014.04 1014.02 1014.04 1014.09 1014.19 1014.33 1014.48 1014.61 1014.71 1014.74 1014.70 1014.59 1014.42 1014.22 1014.02 1013.85 1013.74
1017.77 1017.65 1017.50 1017.35 1017.20 1017.07 1016.96 1016.84 1016.70 1016.52 1016.28 1015.97 1015.60 1015.19 1014.76 1014.36 1014.01 1013.75 1013.59 1013.51 1013.52 1013.57 1013.65 1013.72 1013.78 1013.83 1013.87 1013.91 1013.97 1014.05 1014.16 1014.29 1014.41 1014.50 1014.55 1014.54 1014.45 1014.30 1014.09 1013.86 1013.62 1013.41 1013.27
1017.78 1017.67 1017.53 1017.38 1017.23 1017.09 1016.96 1016.82 1016.67 1016.48 1016.24 1015.93 1015.58 1015.18 1014.76 1014.35 1013.97 1013.67 1013.45 1013.31 1013.25 1013.26 1013.32 1013.41 1013.51 1013.62 1013.73 1013.84 1013.96 1014.09 1014.21 1014.33 1014.42 1014.48 1014.49 1014.42 1014.30 1014.10 1013.86 1013.60 1013.33 1013.10 1012.94
1017.69 1017.60 1017.49 1017.37 1017.23 1017.10 1016.96 1016.82 1016.66 1016.46 1016.23 1015.94 1015.61 1015.23 1014.82 1014.41 1014.02 1013.67 1013.39 1013.18 1013.05 1013.01 1013.04 1013.12 1013.25 1013.41 1013.59 1013.77 1013.95 1014.13 1014.28 1014.40 1014.48 1014.51 1014.48 1014.38 1014.22 1014.00 1013.74 1013.46 1013.18 1012.95 1012.77
1017.50 1017.45 1017.38 1017.29 1017.20 1017.08 1016.96 1016.82 1016.66 1016.48 1016.26 1016.00 1015.70 1015.35 1014.98 1014.58 1014.17 1013.79 1013.45 1013.17 1012.97 1012.85 1012.82 1012.88 1013.01 1013.19 1013.41 1013.66 1013.90 1014.12 1014.31 1014.46 1014.54 1014.56 1014.51 1014.39 1014.21 1013.98 1013.71 1013.43 1013.16 1012.93 1012.75
1017.22 1017.21 1017.19 1017.16 1017.11 1017.03 1016.94 1016.82 1016.67 1016.51 1016.32 1016.10 1015.85 1015.55 1015.22 1014.85 1014.46 1014.05 1013.66 1013.31 1013.02 1012.81 1012.70 1012.69 1012.78 1012.96 1013.20 1013.48 1013.77 1014.05 1014.29 1014.46 1014.57 1014.60 1014.55 1014.44 1014.26 1014.03 1013.77 1013.50 1013.25 1013.03 1012.86
1016.88 1016.91 1016.95 1016.97 1016.97 1016.94 1016.88 1016.79 1016.67 1016.54 1016.39 1016.22 1016.03 1015.80 1015.53 1015.21 1014.84 1014.43 1014.01 1013.58 1013.20 1012.89 1012.68 1012.58 1012.60 1012.74 1012.97 1013.25 1013.58 1013.89 1014.18 1014.40 1014.55 1014.61 1014.59 1014.49 1014.34 1014.13 1013.89 1013.65 1013.41 1013.21 1013.06
1016.51 1016.58 1016.66 1016.73 1016.78 1016.80 1016.77 1016.72 1016.63 1016.53 1016.43 1016.31 1016.19 1016.03 1015.84 1015.59 1015.27 1014.87 1014.43 1013.95 1013.49 1013.08 1012.75 1012.54 1012.47 1012.53 1012.71 1012.99 1013.32 1013.66 1013.99 1014.26 1014.46 1014.58 1014.60 1014.55 1014.43 1014.26 1014.05 1013.83 1013.63 1013.44 1013.30
1016.14 1016.24 1016.35 1016.46 1016.55 1016.60 1016.61 1016.58 1016.53 1016.46 1016.39 1016.33 1016.26 1016.19 1016.07 1015.89 1015.63 1015.28 1014.84 1014.34 1013.82 1013.32 1012.88 1012.56 1012.38 1012.35 1012.47 1012.70 1013.01 1013.37 1013.73 1014.05 1014.31 1014.49 1014.57 1014.57 1014.50 1014.38 1014.21 1014.03 1013.85 1013.68 1013.54
1015.80 1015.90 1016.03 1016.17 1016.28 1016.36 1016.39 1016.38 1016.33 1016.28 1016.23 1016.21 1016.19 1016.18 1016.13 1016.03 1015.85 1015.55 1015.15 1014.65 1014.10 1013.54 1013.03 1012.61 1012.33 1012.21 1012.24 1012.41 1012.69 1013.05 1013.42 1013.78 1014.09 1014.32 1014.47 1014.53 1014.52 1014.45 1014.33 1014.19 1014.03 1013.88 1013.76
1015.48 1015.58 1015.72 1015.86 1015.99 1016.07 1016.10 1016.09 1016.04 1015.98 1015.93 1015.92 1015.93 1015.96 1015.98 1015.95 1015.84 1015.62 1015.27 1014.82 1014.28 1013.71 1013.15 1012.67 1012.30 1012.09 1012.04 1012.15 1012.38 1012.70 1013.07 1013.44 1013.78 1014.06 1014.27 1014.39 1014.44 1014.43 1014.37 1014.27 1014.15 1014.02 1013.91
1015.17 1015.27 1015.40 1015.54 1015.67 1015.74 1015.77 1015.73 1015.66 1015.57 1015.51 1015.47 1015.49 1015.54 1015.59 1015.62 1015.59 1015.45 1015.18 1014.80 1014.31 1013.77 1013.21 1012.70 1012.29 1012.01 1011.88 1011.91 1012.07 1012.34 1012.68 1013.04 1013.38 1013.69 1013.94 1014.12 1014.23 1014.28 1014.27 1014.22 1014.15 1014.06 1013.97
1014.86 1014.95 1015.08 1015.22 1015.33 1015.39 1015.39 1015.33 1015.21 1015.09 1014.98 1014.91 1014.90 1014.94 1015.01 1015.08 1015.11 1015.05 1014.89 1014.60 1014.20 1013.72 1013.21 1012.71 1012.28 1011.95 1011.76 1011.72 1011.80 1011.99 1012.26 1012.57 1012.90 1013.20 1013.47 1013.68 1013.84 1013.95 1014.01 1014.03 1014.01 1013.97 1013.92
1014.53 1014.62 1014.75 1014.88 1014.98 1015.02 1015.00 1014.90 1014.75 1014.57 1014.41 1014.29 1014.24 1014.25 1014.32 1014.41 1014.49 1014.50 1014.43 1014.25 1013.96 1013.58 1013.14 1012.69 1012.28 1011.93 1011.69 1011.57 1011.56 1011.66 1011.84 1012.07 1012.34 1012.61 1012.86 1013.09 1013.28 1013.44 1013.56 1013.65 1013.70 1013.73 1013.73
1014.15 1014.26 1014.39 1014.52 1014.62 1014.65 1014.61 1014.49 1014.30 1014.08 1013.86 1013.69 1013.59 1013.56 1013.60 1013.70 1013.80 1013.88 1013.90 1013.82 1013.65 1013.38 1013.04 1012.66 1012.28 1011.94 1011.67 1011.47 1011.37 1011.36 1011.43 1011.56 1011.73 1011.93 1012.15 1012.36 1012.57 1012.76 1012.93 1013.09 1013.22 1013.32 1013.39
1013.72 1013.85 1013.99 1014.13 1014.23 1014.26 1014.21 1014.08 1013.88 1013.63 1013.38 1013.17 1013.01 1012.95 1012.96 1013.04 1013.16 1013.28 1013.37 1013.38 1013.31 1013.16 1012.92 1012.63 1012.31 1011.99 1011.69 1011.44 1011.26 1011.13 1011.08 1011.08 1011.14 1011.24 1011.38 1011.54 1011.73 1011.93 1012.15 1012.36 1012.56 1012.74 1012.89
1013.21 1013.37 1013.53 1013.68 1013.79 1013.83 1013.79 1013.67 1013.47 1013.23 1012.97 1012.73 1012.55 1012.45 1012.44 1012.50 1012.62 1012.76 1012.89 1012.98 1013.00 1012.94 1012.80 1012.60 1012.34 1012.05 1011.75 1011.47 1011.21 1010.98 1010.81 1010.68 1010.61 1010.59 1010.62 1010.71 1010.85 1011.04 1011.25 1011.50 1011.75 1012.00 1012.23
1012.61 1012.79 1012.97 1013.13 1013.26 1013.32 1013.30 1013.21 1013.04 1012.82 1012.59 1012.37 1012.19 1012.08 1012.05 1012.10 1012.21 1012.35 1012.51 1012.63 1012.72 1012.73 1012.68 1012.55 1012.36 1012.12 1011.83 1011.53 1011.22 1010.92 1010.64 1010.39 1010.19 1010.04 1009.96 1009.95 1010.01 1010.13 1010.32 1010.56 1010.84 1011.13 1011.42
1011.92 1012.11 1012.30 1012.46 1012.59 1012.68 1012.69 1012.65 1012.53 1012.38 1012.20 1012.03 1011.89 1011.80 1011.78 1011.82 1011.92 1012.05 1012.21 1012.35 1012.47 1012.54 1012.54 1012.48 1012.35 1012.16 1011.90 1011.61 1011.27 1010.92 1010.57 1010.22 1009.91 1009.64 1009.44 1009.31 1009.26 1009.30 1009.42 1009.62 1009.88 1010.18 1010.50
1011.13 1011.31 1011.49 1011.65 1011.78 1011.88 1011.94 1011.95 1011.91 1011.84 1011.76 1011.67 1011.60 1011.57 1011.57 1011.62 1011.72 1011.84 1011.99 1012.13 1012.25 1012.34 1012.38 1012.37 1012.29 1012.15 1011.94 1011.67 1011.35 1010.98 1010.59 1010.18 1009.78 1009.42 1009.10 1008.85 1008.68 1008.61 1008.63 1008.75 1008.94 1009.21 1009.53
1010.25 1010.42 1010.57 1010.71 1010.83 1010.95 1011.04 1011.12 1011.17 1011.21 1011.24 1011.26 1011.29 1011.34 1011.40 1011.49 1011.59 1011.71 1011.83 1011.95 1012.06 1012.15 1012.21 1012.22 1012.18 1012.09 1011.93 1011.70 1011.41 1011.06 1010.67 1010.24 1009.79 1009.35 1008.95 1008.59 1008.30 1008.10 1008.00 1008.00 1008.10 1008.29 1008.56
1009.33 1009.46 1009.58 1009.69 1009.81 1009.93 1010.06 1010.20 1010.35 1010.50 1010.66 1010.82 1010.97 1011.12 1011.26 1011.40 1011.52 1011.64 1011.74 1011.83 1011.91 1011.98 1012.02 1012.04 1012.03 1011.97 1011.85 1011.68 1011.45 1011.14 1010.78 1010.36 1009.91 1009.43 1008.96 1008.52 1008.13 1007.81 1007.58 1007.45 1007.42 1007.50 1007.68
1008.43 1008.53 1008.61 1008.69 1008.80 1008.92 1009.08 1009.28 1009.52 1009.79 1010.08 1010.37 1010.66 1010.92 1011.16 1011.36 1011.52 1011.64 1011.72 1011.78 1011.82 1011.85 1011.87 1011.87 1011.85 1011.81 1011.74 1011.61 1011.43 1011.19 1010.88 1010.51 1010.08 1009.62 1009.13 1008.63 1008.17 1007.74 1007.39 1007.12 1006.96 1006.91 1006.97
1007.61 1007.70 1007.76 1007.82 1007.91 1008.04 1008.23 1008.48 1008.80 1009.17 1009.57 1009.99 1010.40 1010.78 1011.11 1011.38 1011.58 1011.71 1011.78 1011.81 1011.81 1011.79 1011.76 1011.73 1011.70 1011.66 1011.60 1011.52 1011.39 1011.21 1010.97 1010.66 1010.29 1009.86 1009.39 1008.88 1008.37 1007.88 1007.43 1007.05 1006.75 1006.56 1006.49
1006.96 1007.05 1007.11 1007.17 1007.25 1007.39 1007.60 1007.89 1008.26 1008.70 1009.20 1009.72 1010.23 1010.70 1011.11 1011.45 1011.69 1011.84 1011.91 1011.91 1011.88 1011.81 1011.73 1011.66 1011.60 1011.54 1011.49 1011.42 1011.34 1011.21 1011.04 1010.81 1010.50 1010.13 1009.70 1009.23 1008.71 1008.19 1007.68 1007.20 1006.80 1006.48 1006.27
Thickness
5776 5776 5774 5773 5774 5773 5773 5772 5772 5771 5771 5771 5772 5772 5772 5772 5773 5773 5770 5766 5764 5763 5761 5760 5759 5758 5757 5755 5754 5752 5751 5750 5749 5748 5746 5745 5744 5743 5742 5741 5739 5738 5737
5775 5774 5774 5773 5773 5773 5772 5771 5772 5771 5772 5772 5771 5771 5771 5771 5770 5770 5770 5768 5765 5763 5762 5760 5759 5758 5757 5755 5754 5753 5751 5750 5750 5748 5747 5746 5744 5744 5743 5741 5740 5739 5738
5773 5772 5773 5772 5772 5771 5771 5771 5771 5771 5771 5771 5770 5770 5770 5769 5769 5769 5769 5769 5768 5764 5762 5760 5759 5758 5756 5755 5754 5753 5752 5751 5750 5749 5747 5746 5745 5744 5744 5742 5741 5740 5739
5771 5771 5771 5771 5770 5770 5770 5770 5770 5769 5769 5768 5767 5768 5769 5767 5767 5767 5768 5767 5767 5766 5763 5760 5758 5757 5756 5755 5754 5753 5752 5751 5750 5749 5748 5747 5746 5745 5744 5742 5741 5740 5739
5771 5771 5770 5769 5768 5769 5769 5769 5768 5767 5765 5764 5765 5766 5767 5766 5765 5767 5767 5767 5766 5765 5764 5760 5758 5757 5755 5754 5753 5753 5752 5751 5750 5749 5748 5747 5746 5745 5744 5742 5741 5740 5739
5772 5771 5770 5768 5769 5768 5766 5765 5763 5762 5762 5761 5764 5763 5764 5765 5764 5765 5765 5766 5764 5763 5762 5760 5759 5757 5755 5753 5752 5752 5751 5751 5750 5749 5748 5747 5745 5744 5743 5742 5741 5740 5739
5772 5770 5771 5768 5767 5766 5763 5763 5762 5760 5760 5760 5757 5756 5760 5763 5762 5762 5762 5763 5762 5760 5759 5758 5758 5757 5756 5753 5751 5751 5750 5750 5749 5748 5747 5746 5745 5744 5742 5741 5740 5739 5738
5772 5772 5769 5769 5768 5764 5762 5761 5759 5758 5759 5758 5755 5751 5750 5752 5755 5760 5759 5758 5759 5758 5758 5757 5755 5754 5753 5753 5752 5750 5749 5748 5747 5746 5746 5744 5744 5743 5741 5740 5739 5737 5736
5772 5770 5768 5768 5766 5766 5763 5760 5758 5755 5755 5756 5755 5750 5745 5744 5749 5754 5754 5755 5754 5755 5755 5755 5753 5752 5751 5750 5749 5747 5746 5745 5745 5744 5744 5743 5742 5741 5740 5739 5738 5736 5735
5771 5769 5767 5766 5764 5765 5761 5761 5759 5757 5753 5752 5752 5750 5749 5747 5743 5744 5749 5752 5752 5751 5752 5753 5752 5750 5748 5747 5746 5744 5743 5742 5742 5741 5741 5740 5740 5739 5739 5739 5738 5736 5734
5771 5769 5767 5765 5763 5763 5760 5758 5756 5755 5755 5752 5750 5749 5746 5745 5745 5740 5739 5743 5747 5750 5750 5749 5748 5747 5745 5745 5743 5741 5740 5739 5738 5738 5738 5737 5737 5737 5736 5736 5736 5734 5732
5771 5769 5766 5764 5762 5761 5758 5757 5755 5754 5752 5750 5750 5748 5745 5743 5742 5740 5737 5737 5739 5744 5745 5745 5744 5744 5743 5742 5740 5738 5736 5735 5734 5734 5734 5733 5733 5733 5733 5733 5733 5732 5730
5769 5766 5765 5762 5761 5759 5757 5755 5753 5752 5750 5748 5746 5746 5746 5744 5743 5740 5737 5736 5735 5739 5739 5741 5742 5740 5740 5739 5737 5733 5732 5731 5730 5730 5730 5729 5729 5729 5729 5730 5729 5728 5727
5767 5765 5762 5760 5758 5756 5755 5753 5752 5750 5748 5746 5745 5742 5742 5742 5741 5739 5736 5732 5729 5732 5734 5734 5738 5737 5735 5734 5732 5730 5730 5728 5727 5726 5726 5725 5725 5725 5725 5725 5725 5724 5723
5765 5762 5760 5758 5756 5754 5751 5750 5749 5746 5745 5744 5743 5740 5739 5739 5738 5737 5735 5732 5726 5723 5727 5730 5731 5733 5731 5730 5728 5727 5726 5724 5723 5722 5722 5721 5721 5721 5721 5721 5721 5720 5719
5759 5756 5755 5754 5753 5751 5748 5746 5745 5743 5740 5739 5737 5734 5732 5734 5733 5731 5730 5728 5727 5723 5721 5726 5726 5727 5726 5727 5724 5723 5723 5721 5719 5719 5718 5717 5716 5716 5716 5716 5716 5715 5714
5753 5752 5751 5750 5748 5746 5744 5742 5741 5738 5736 5734 5733 5731 5728 5726 5726 5726 5725 5724 5722 5720 5716 5720 5723 5722 5719 5718 5719 5719 5719 5719 5719 5715 5714 5713 5712 5711 5711 5711 5710 5711 5710
5748 5747 5747 5746 5744 5742 5739 5737 5736 5734 5731 5729 5727 5725 5723 5722 5719 5718 5717 5717 5716 5714 5711 5710 5714 5715 5713 5712 5712 5712 5715 5716 5715 5712 5710 5708 5707 5706 5705 5705 5705 5704 5704
5743 5743 5743 5741 5740 5738 5735 5733 5731 5729 5727 5725 5723 5720 5718 5716 5713 5712 5710 5711 5711 5711 5708 5706 5708 5709 5709 5708 5706 5707 5709 5708 5710 5709 5705 5703 5702 5701 5699 5699 5698 5698 5698
5738 5738 5738 5737 5736 5734 5732 5729 5727 5724 5721 5719 5718 5715 5714 5711 5708 5705 5704 5703 5703 5702 5702 5701 5701 5702 5702 5702 5700 5700 5700 5701 5702 5704 5702 5700 5697 5695 5694 5693 5692 5691 5690
5735 5734 5733 5732 5731 5729 5728 5724 5721 5720 5716 5713 5712 5710 5709 5706 5701 5699 5699 5698 5696 5695 5695 5695 5694 5694 5694 5693 5693 5694 5693 5694 5695 5695 5695 5695 5694 5693 5691 5687 5686 5684 5683
5729 5728 5727 5726 5724 5725 5719 5714 5712 5712 5710 5707 5705 5704 5702 5699 5695 5691 5689 5688 5686 5686 5686 5685 5687 5685 5684 5685 5685 5685 5685 5685 5685 5689 5686 5687 5688 5686 5685 5684 5680 5678 5676
5725 5723 5721 5719 5717 5714 5709 5706 5704 5705 5704 5701 5699 5696 5696 5695 5690 5687 5684 5681 5680 5679 5677 5677 5677 5677 5678 5678 5676 5676 5675 5675 5676 5680 5678 5679 5681 5679 5679 5678 5674 5671 5670
5719 5716 5715 5713 5710 5707 5702 5699 5697 5697 5697 5695 5692 5689 5686 5684 5683 5679 5679 5678 5677 5675 5673 5672 5671 5670 5671 5669 5668 5668 5667 5668 5670 5672 5671 5670 5673 5673 5674 5671 5667 5665 5663
5711 5709 5708 5706 5703 5700 5695 5691 5688 5691 5690 5688 5686 5683 5680 5677 5672 5669 5669 5669 5669 5668 5667 5665 5662 5661 5660 5660 5659 5660 5660 5661 5662 5665 5665 5663 5665 5665 5665 5665 5662 5659 5657
5704 5703 5701 5699 5697 5694 5689 5684 5681 5684 5682 5681 5679 5676 5672 5669 5664 5661 5661 5661 5661 5661 5661 5660 5656 5655 5655 5655 5652 5652 5654 5654 5655 5656 5659 5656 5657 5656 5656 5659 5658 5655 5652